Location: Seattle
(47.6064°N, 122.3308°W)
Time: 01:21:45
(UTC-08:00)

Tiros 1 - Pass Details

Date: 04 December 2020
Orbit: 630 x 663 km, 48.4° (Epoch: 28 January)

Event Time Altitude Azimuth Distance (km) Brightness Sun altitude
Rises 12:21:38 0° 201° (SSW) 2,977 11.9 19.8°
Reaches altitude 10° 12:24:30 10° 185° (S) 2,071 12.2 19.8°
Maximum altitude 12:27:55 20° 139° (SE) 1,533 9.9 19.7°
Drops below altitude 10° 12:31:21 10° 93° (E) 2,081 9.8 19.7°
Sets 12:34:14 0° 77° (ENE) 2,996 10.4 19.6°
